Date,TemperatureHighF,TemperatureAvgF,TemperatureLowF,DewpointHighF,DewpointAvgF,DewpointLowF,HumidityHigh,HumidityAvg,HumidityLow,PressureMaxIn,PressureMinIn,WindSpeedMaxMPH,WindSpeedAvgMPH,GustSpeedMaxMPH,PrecipitationSumIn
2014-1-1,37,32,30,8,4,2,30,30,28,30.32,30.23,6,0,6,100.79
2014-1-2,40,34,31,12,6,2,33,30,28,30.23,29.76,13,0,13,0.28
2014-1-3,41,36,30,10,6,1,31,28,26,30.20,29.82,13,2,15,0.04
2014-1-4,37,30,25,6,0,-3,29,28,27,30.35,30.20,5,0,5,0.00
2014-1-5,35,27,24,7,-1,-4,30,28,27,30.50,30.35,6,0,6,0.00
2014-1-6,32,27,24,2,-1,-3,29,28,28,30.41,30.11,4,0,4,0.00
2014-1-7,31,30,28,2,0,-1,28,28,28,30.11,30.00,0,0,0,0.00
2014-1-8,30,29,28,2,0,-1,30,28,28,30.00,29.67,0,0,2,0.00
2014-1-9,37,33,29,8,5,1,31,30,29,29.88,29.67,13,0,13,0.04
2014-1-10,45,38,33,13,9,6,34,30,27,29.88,29.61,18,3,18,1.42
2014-1-11,39,35,33,11,8,6,34,32,29,29.61,29.32,13,1,14,1.73
2014-1-12,44,38,34,13,9,6,32,29,26,30.06,29.55,17,3,17,0.39
2014-1-13,48,47,44,16,14,13,28,27,27,30.11,30.03,21,5,21,0.00
2014-1-15,52,40,32,16,9,5,30,28,23,28.47,28.35,8,0,8,0.00
2014-1-16,40,33,30,9,5,3,31,30,28,28.47,28.32,5,0,5,0.00
2014-1-17,34,32,30,6,4,3,31,31,30,28.35,28.29,0,0,0,0.00
2014-1-18,31,30,29,4,3,2,31,30,30,28.29,28.17,5,0,5,0.00
2014-1-19,32,30,29,4,3,1,30,30,30,28.35,28.08,7,0,7,0.00
2014-1-20,32,29,28,4,2,0,31,30,28,28.44,28.35,6,0,6,0.00
2014-1-21,31,29,27,2,0,-2,30,28,28,28.41,28.26,5,0,5,0.00
2014-1-22,34,30,28,6,2,-1,30,29,28,28.44,28.26,4,0,4,0.00
2014-1-23,40,32,29,10,4,2,31,30,28,28.53,28.41,6,0,6,0.00
2014-1-24,32,30,29,4,2,1,31,30,28,28.56,28.47,4,0,4,0.00
2014-1-25,32,30,28,4,0,-1,30,28,28,28.47,28.23,6,0,6,0.00
2014-1-26,31,29,27,1,0,-2,28,28,28,28.26,28.17,8,0,8,0.00
2014-1-27,34,30,27,6,2,-2,30,29,28,28.35,28.20,5,0,5,0.00
2014-1-28,34,32,30,6,4,2,30,30,28,28.29,27.99,4,0,4,0.00
2014-1-29,33,31,29,5,3,2,31,30,30,27.99,27.61,0,0,0,0.00
2014-1-30,34,32,29,7,5,2,33,31,30,27.85,27.70,0,0,0,0.00
2014-1-31,35,33,31,7,5,3,32,31,30,28.02,27.82,4,0,4,0.00
2014-2-1,32,30,26,4,2,-2,31,29,28,28.08,27.99,0,0,0,0.00
2014-2-2,31,27,24,2,-1,-3,29,29,28,28.02,27.88,0,0,0,0.00
2014-2-3,28,25,22,0,-3,-5,30,29,28,28.11,27.91,0,0,0,0.00
2014-2-4,23,20,16,-4,-7,-11,31,29,27,28.38,28.11,0,0,0,0.00
2014-2-5,19,11,2,-11,-16,-25,29,27,23,28.47,28.32,11,1,13,0.00
2014-2-6,16,8,-1,-13,-20,-28,27,26,24,28.32,27.76,13,1,13,0.00
2014-2-7,34,16,10,0,-12,-17,29,27,23,27.85,27.76,10,1,10,0.00
2014-2-8,27,19,13,-3,-9,-14,30,28,23,28.05,27.85,11,1,11,0.00
2014-2-9,26,23,19,-2,-5,-7,30,29,29,28.11,27.94,2,0,2,0.00
2014-2-10,26,24,23,-2,-3,-4,30,29,29,28.11,27.94,0,0,0,0.00
2014-2-11,38,31,24,9,4,-4,32,31,29,28.02,27.67,2,0,2,0.00
2014-2-12,54,36,32,18,7,4,32,30,23,27.79,27.49,11,0,13,0.71
2014-2-13,38,35,33,12,8,5,34,32,30,28.02,27.64,8,0,8,0.51
2014-2-14,34,34,33,12,9,8,40,35,33,27.91,27.61,0,0,0,0.16
2014-2-15,34,33,32,12,9,8,39,37,33,27.91,27.40,6,0,6,0.12
2014-2-16,38,34,33,10,6,5,36,30,26,27.88,27.49,15,1,15,0.31
2014-2-17,36,34,33,8,6,5,32,31,29,27.85,27.61,11,0,12,0.28
2014-2-18,34,33,33,9,7,6,35,33,31,27.88,27.49,12,0,12,0.12
2014-2-19,35,33,32,7,5,4,31,30,30,27.99,27.67,10,1,10,0.08
2014-2-20,36,33,31,8,6,3,33,31,30,27.99,27.85,13,0,13,0.47
2014-2-21,39,35,30,7,5,0,30,28,24,28.08,27.96,16,4,16,0.08
2014-2-22,32,29,25,4,1,-3,30,29,28,28.08,27.94,0,0,0,0.00
2014-2-23,32,30,29,4,3,2,31,30,30,27.99,27.91,2,0,2,0.00
2014-2-24,31,29,28,3,2,1,31,30,30,28.17,27.99,0,0,0,0.00
2014-2-25,35,30,28,4,2,0,31,29,27,28.29,28.17,8,0,8,0.00
2014-2-26,40,31,26,9,2,-2,31,28,23,28.17,27.82,8,0,8,0.20
2014-2-27,38,32,27,9,4,0,31,30,26,27.82,27.64,0,0,0,0.08
2014-2-28,46,37,31,13,7,4,32,28,22,27.70,27.55,9,0,9,0.35
2014-3-1,37,24,18,6,-4,-8,30,29,26,27.88,27.61,10,1,11,0.00
2014-3-2,23,20,18,-4,-6,-8,30,30,27,27.85,27.73,6,0,6,0.00
2014-3-3,31,24,20,3,-3,-6,31,30,28,27.82,27.73,4,0,4,0.00
2014-3-4,37,34,31,11,7,3,34,31,30,27.91,27.82,5,0,5,0.39
2014-3-5,42,36,33,12,10,8,35,32,28,27.82,27.46,3,0,3,1.18
2014-3-6,44,38,35,17,12,9,38,34,29,27.91,27.46,8,0,13,0.35
2014-3-7,51,40,32,16,12,5,38,31,24,28.17,27.91,13,1,13,0.00
2014-3-8,37,34,31,9,6,4,33,31,29,28.14,27.76,0,0,0,0.98
2014-3-9,52,40,34,18,11,8,36,31,23,27.91,27.79,14,1,14,0.16
2014-3-10,49,40,35,13,10,5,33,28,21,28.29,27.82,17,3,17,0.00
2014-3-11,52,39,31,13,6,1,30,26,19,28.47,28.29,9,0,10,0.00
2014-3-12,52,36,28,13,5,0,31,27,18,28.38,28.05,4,0,4,0.00
2014-3-13,35,32,32,5,4,3,30,29,28,28.08,28.05,0,0,0,0.00